sat.trackr.live / text

‹ back to catalog

STARLINK-34972

NORAD 65188 · 2025-175Q

PAYLOAD ACTIVE UNKNOWN

§ Identity

Operator
Country
US
Launch date
2025-08-14
Launch site
AFWTR
Launch vehicle
Mass (kg)
RCS (m²)

Purposes: comms

External: N2YO · Heavens-Above · Gunter

§ Orbital elements

Epoch: 2026-05-25T03:10:01.604928Z

Period
95.64 min
Inclination
97.4541°
Eccentricity
0.0002111
Mean motion
15.05659489 rev/d
Perigee alt
548.0 km
Apogee alt
550.9 km
Semi-major
6,927.6 km
B*
3.3732e-4
RAAN
17.6415°
Arg perigee
69.8518°
Mean anomaly
290.2936°
Rev number
4,411

§ Raw data

STARLINK-349721 65188U 25175Q   26145.13196302  .00004813  00000+0  33732-3 0  99972 65188  97.4541  17.6415 0002111  69.8518 290.2936 15.05659489 44119

JSON: /api/v1/satellites/65188 · /tle

For live sub-satellite position, see the globe view (requires WebGL).

§ Visibility from observer

Set your observer location to see the next 7 days of passes ≥ 10°. The values pass through the URL so the page stays shareable.

No JS? Fill the form by hand. The geolocation button needs JavaScript.